TimeCST,TemperatureF,Dew PointF,Humidity,Sea Level PressureIn,VisibilityMPH,Wind Direction,Wind SpeedMPH,Gust SpeedMPH,PrecipitationIn,Events,Conditions,WindDirDegrees,DateUTC
12:53 AM,50.0,46.9,89,29.98,10.0,NNW,5.8,-,N/A,,Clear,330,2013-02-28 06:53:00
1:53 AM,48.9,45.0,86,29.98,10.0,NNW,5.8,-,N/A,,Clear,330,2013-02-28 07:53:00
2:53 AM,48.0,43.0,83,29.98,10.0,NNW,8.1,-,N/A,,Scattered Clouds,330,2013-02-28 08:53:00
3:53 AM,48.9,39.9,71,29.99,10.0,NNW,8.1,-,N/A,,Scattered Clouds,330,2013-02-28 09:53:00
4:53 AM,46.9,39.9,77,30.01,10.0,NNW,9.2,-,N/A,,Clear,340,2013-02-28 10:53:00
5:53 AM,46.9,37.9,71,30.04,10.0,North,10.4,-,N/A,,Clear,350,2013-02-28 11:53:00
6:53 AM,46.9,37.0,68,30.06,10.0,NNW,9.2,-,N/A,,Clear,340,2013-02-28 12:53:00
7:53 AM,51.1,35.1,54,30.07,10.0,NNW,12.7,-,N/A,,Clear,340,2013-02-28 13:53:00
8:53 AM,52.0,32.0,47,30.08,10.0,NNW,15.0,20.7,N/A,,Clear,330,2013-02-28 14:53:00
9:53 AM,55.0,32.0,42,30.07,10.0,NNW,17.3,20.7,N/A,,Clear,340,2013-02-28 15:53:00
10:53 AM,57.0,32.0,39,30.07,10.0,NW,12.7,18.4,N/A,,Clear,310,2013-02-28 16:53:00
11:53 AM,59.0,32.0,36,30.05,10.0,WNW,11.5,17.3,N/A,,Clear,290,2013-02-28 17:53:00
12:53 PM,60.1,28.9,31,30.02,10.0,NW,10.4,-,N/A,,Clear,310,2013-02-28 18:53:00
1:53 PM,61.0,30.0,31,30.00,10.0,WNW,9.2,16.1,N/A,,Clear,300,2013-02-28 19:53:00
2:53 PM,59.0,27.0,29,30.00,10.0,NW,12.7,-,N/A,,Clear,320,2013-02-28 20:53:00
3:53 PM,57.9,28.9,33,30.00,10.0,NW,8.1,-,N/A,,Clear,320,2013-02-28 21:53:00
4:53 PM,55.9,28.0,34,30.01,10.0,NW,9.2,-,N/A,,Clear,320,2013-02-28 22:53:00
5:53 PM,54.0,30.0,40,30.01,10.0,NNW,10.4,-,N/A,,Clear,330,2013-02-28 23:53:00
6:53 PM,53.1,33.1,47,30.03,10.0,NNW,10.4,-,N/A,,Clear,330,2013-03-01 00:53:00
7:53 PM,51.1,33.1,50,30.04,10.0,NW,10.4,18.4,N/A,,Clear,320,2013-03-01 01:53:00
8:53 PM,50.0,33.1,52,30.05,10.0,NW,8.1,-,N/A,,Clear,320,2013-03-01 02:53:00
9:53 PM,50.0,33.1,52,30.07,10.0,WNW,9.2,-,N/A,,Clear,300,2013-03-01 03:53:00
10:53 PM,48.9,34.0,56,30.08,10.0,NW,8.1,-,N/A,,Clear,310,2013-03-01 04:53:00
11:53 PM,48.9,32.0,52,30.08,10.0,NNW,15.0,18.4,N/A,,Clear,330,2013-03-01 05:53:00